Location: Bratislava
(48.1500°N, 17.1167°E)
Time: 22:07:29
(UTC+01:00)

ISS - Pass Details

Date: 23 January 2020
Orbit: 415 x 423 km, 51.6° (Epoch: 25 February)

Event Time Altitude Azimuth Distance (km) Brightness Sun altitude
Rises 17:31:13 0° 211° (SSW) 2,368 0.9 -9.2°
Reaches altitude 10° 17:33:32 10° 198° (SSW) 1,506 -0.4 -9.6°
Maximum altitude 17:36:21 24° 141° (SE) 910 -2.3 -10.0°
Enters shadow 17:38:28 14° 93° (E) 1,284 -1.9 -10.4°
